Gainesville, GA

11:50 PM EST on December 03, 2016 (GMT -0500)
Gilmer Memorial

Weather History for KGVL - May, 2012

Change the Weather History Date:

Sunday, May 13, 2012

  Actual Average Record
Temperature  
Mean Temperature 62 °F 67 °F  
Max Temperature 64 °F 78 °F 89 °F (1936)
Min Temperature 59 °F 57 °F 34 °F (1941)
Degree Days  
Heating Degree Days 4    
Cooling Degree Days 0 4  
Month to date cooling degree days 35  
Year to date cooling degree days 74  
Growing Degree Days 12 (Base 50)    
Moisture  
Dew Point 60 °F    
Average Humidity 96    
Maximum Humidity 100    
Minimum Humidity 81    
Precipitation  
Precipitation 1.29 in 0.12 in 1.29 in (2012)
Month to date precipitation 1.65  
Year to date precipitation 20.53  
Sea Level Pressure  
Sea Level Pressure 30.16 in    
Wind  
Wind Speed 6 mph (ESE)    
Max Wind Speed 10 mph    
Max Gust Speed -    
Visibility 4 miles    
Events Rain    
T = Trace of Precipitation, MM = Missing Value Source: NWS Daily Summary

Daily Weather History Graph

Daily Weather History Graph

Search for Another Location

Airport or City:

Trip Planner

Search our weather history database for the weather conditions in past years. The results will help you decide how hot, cold, wet, or windy it might be!

Date:

Astronomy

May. 13, 2012 Rise Set
Actual Time 6:34 AM EDT 8:29 PM EDT
Civil Twilight 6:06 AM EDT 8:57 PM EDT
Nautical Twilight 5:33 AM EDT 9:30 PM EDT
Astronomical Twilight 4:57 AM EDT 10:06 PM EDT
Moon 2:21 AM EDT (5/13) 2:06 PM EDT (5/13)
Length of Visible Light 14h 50m
Length of Day
13h 54m
Last Quarter, 42% of the Moon is Illuminated
May 13
Last Quarter
May 20
New
May 28
First Quarter
Jun 4
Full
Jun 11
Last Quarter

Hourly Weather History & Observations

Time (EDT) Temp. Dew Point Humidity Pressure Visibility Wind Dir Wind Speed Gust Speed Precip Events Conditions
12:53 AM 64.9 °F 59.0 °F 81% 30.21 in 10.0 mi ESE 3.5 mph - 0.00 in Rain Light Rain
1:53 AM 63.0 °F 60.1 °F 90% 30.20 in 8.0 mi East 4.6 mph - 0.00 in Rain Light Rain
2:53 AM 61.0 °F 57.9 °F 90% 30.19 in 8.0 mi ESE 3.5 mph - 0.05 in Rain Light Rain
3:53 AM 60.1 °F 57.9 °F 93% 30.19 in 8.0 mi East 4.6 mph - 0.06 in Rain Light Rain
4:53 AM 60.1 °F 57.9 °F 93% 30.20 in 6.0 mi East 3.5 mph - 0.01 in Rain Light Rain
5:53 AM 60.1 °F 57.9 °F 93% 30.19 in 6.0 mi East 3.5 mph - 0.07 in Rain Light Rain
6:53 AM 60.1 °F 59.0 °F 96% 30.20 in 4.0 mi East 5.8 mph - 0.09 in Rain Rain
7:16 AM 59.0 °F 59.0 °F 100% 30.23 in 2.0 mi East 5.8 mph - 0.04 in Rain Rain
7:33 AM 59.0 °F 57.2 °F 94% 30.22 in 2.5 mi East 6.9 mph - 0.08 in Rain Rain
7:44 AM 59.0 °F 59.0 °F 100% 30.22 in 3.0 mi East 8.1 mph - 0.09 in Rain Light Rain
8:06 AM 60.8 °F 59.0 °F 94% 30.22 in 3.0 mi East 6.9 mph - 0.02 in Rain Light Rain
8:11 AM 59.0 °F 59.0 °F 100% 30.22 in 3.0 mi East 5.8 mph - 0.02 in Rain Light Rain
8:53 AM 59.0 °F 59.0 °F 100% 30.20 in 3.0 mi SE 4.6 mph - 0.05 in Rain Rain
9:02 AM 59.0 °F 59.0 °F 100% 30.23 in 2.5 mi SE 6.9 mph - 0.01 in Rain Rain
9:11 AM 59.0 °F 59.0 °F 100% 30.23 in 2.5 mi SE 5.8 mph - 0.03 in Rain Light Rain
9:19 AM 59.0 °F 59.0 °F 100% 30.22 in 2.0 mi ESE 9.2 mph - 0.06 in Rain Heavy Rain
9:22 AM 59.0 °F 59.0 °F 100% 30.22 in 1.8 mi ESE 6.9 mph - 0.06 in Rain Rain
9:33 AM 60.8 °F 59.0 °F 94% 30.22 in 2.0 mi East 8.1 mph - 0.09 in Rain Light Rain
9:38 AM 60.8 °F 59.0 °F 94% 30.22 in 3.0 mi ESE 6.9 mph - 0.09 in Rain Light Rain
9:53 AM 60.1 °F 59.0 °F 96% 30.19 in 3.0 mi East 6.9 mph - 0.10 in Rain Light Rain
10:01 AM 60.8 °F 59.0 °F 94% 30.22 in 2.0 mi ESE 4.6 mph - 0.02 in Rain Rain
10:14 AM 60.8 °F 59.0 °F 94% 30.21 in 2.5 mi SE 6.9 mph - 0.04 in Rain Light Rain
10:21 AM 60.8 °F 59.0 °F 94% 30.21 in 2.5 mi ESE 8.1 mph - 0.05 in Rain Rain
10:25 AM 60.8 °F 59.0 °F 94% 30.21 in 2.5 mi ESE 8.1 mph - 0.06 in Rain Light Rain
10:32 AM 60.8 °F 59.0 °F 94% 30.21 in 2.5 mi SE 9.2 mph - 0.07 in Rain Rain
10:37 AM 60.8 °F 59.0 °F 94% 30.22 in 3.0 mi SSE 6.9 mph - 0.08 in Rain Light Rain
10:51 AM 60.8 °F 59.0 °F 94% 30.21 in 5.0 mi SE 6.9 mph - 0.08 in Rain Light Rain
10:52 AM 60.1 °F 59.0 °F 96% 30.19 in 5.0 mi Variable 6.9 mph - 0.08 in Rain Light Rain
10:59 AM 60.8 °F 59.0 °F 94% 30.21 in 4.0 mi SE 5.8 mph - 0.01 in Rain Light Rain
11:10 AM 60.8 °F 59.0 °F 94% 30.20 in 4.0 mi ESE 6.9 mph - 0.03 in Rain Rain
11:15 AM 60.8 °F 59.0 °F 94% 30.21 in 2.5 mi SE 5.8 mph - 0.04 in Rain Rain
11:34 AM 59.0 °F 57.2 °F 94% 30.20 in 2.0 mi ESE 8.1 mph - 0.11 in Rain Rain
11:36 AM 59.0 °F 57.2 °F 94% 30.20 in 2.5 mi ESE 6.9 mph - 0.12 in Rain Rain
11:49 AM 60.8 °F 59.0 °F 94% 30.19 in 3.0 mi East 8.1 mph - 0.16 in Rain Light Rain
11:53 AM 60.1 °F 59.0 °F 96% 30.17 in 3.0 mi East 9.2 mph - 0.17 in Rain Rain
11:57 AM 59.0 °F 57.2 °F 94% 30.19 in 2.0 mi East 10.4 mph - 0.02 in Rain Heavy Rain
12:09 PM 59.0 °F 57.2 °F 94% 30.19 in 2.5 mi East 6.9 mph - 0.06 in Rain Rain
12:16 PM 59.0 °F 57.2 °F 94% 30.20 in 1.8 mi ESE 3.5 mph - 0.12 in Rain Heavy Rain
12:22 PM 59.0 °F 57.2 °F 94% 30.19 in 1.0 mi East 8.1 mph - 0.17 in Rain Heavy Rain
12:29 PM 59.0 °F 59.0 °F 100% 30.18 in 1.5 mi East 9.2 mph - 0.19 in Rain Rain
12:31 PM 59.0 °F 59.0 °F 100% 30.18 in 2.0 mi East 9.2 mph - 0.19 in Rain Rain
12:37 PM 60.8 °F 59.0 °F 94% 30.18 in 2.5 mi East 9.2 mph - 0.20 in Rain Rain
12:39 PM 60.8 °F 59.0 °F 94% 30.18 in 3.0 mi East 9.2 mph - 0.20 in Rain Rain
12:53 PM 60.1 °F 59.0 °F 96% 30.15 in 6.0 mi East 8.1 mph - 0.21 in Rain Light Rain
1:04 PM 60.8 °F 59.0 °F 94% 30.18 in 8.0 mi Variable 6.9 mph - 0.00 in   Overcast
1:33 PM 60.8 °F 59.0 °F 94% 30.17 in 2.5 mi ESE 6.9 mph - 0.01 in Rain Light Rain
1:40 PM 60.8 °F 60.8 °F 100% 30.17 in 3.0 mi East 6.9 mph - 0.01 in Rain Light Rain
1:45 PM 60.8 °F 60.8 °F 100% 30.16 in 2.0 mi ESE 8.1 mph - 0.03 in Rain Rain
1:53 PM 61.0 °F 60.1 °F 97% 30.14 in 2.5 mi ESE 6.9 mph - 0.04 in Rain Light Rain
2:01 PM 60.8 °F 60.8 °F 100% 30.16 in 7.0 mi ESE 4.6 mph - 0.00 in Rain Light Rain
2:39 PM 60.8 °F 60.8 °F 100% 30.14 in 10.0 mi SE 6.9 mph - 0.00 in   Overcast
2:50 PM 62.6 °F 60.8 °F 94% 30.14 in 9.0 mi ESE 5.8 mph - 0.00 in   Overcast
2:53 PM 62.1 °F 61.0 °F 96% 30.11 in 8.0 mi ESE 6.9 mph - 0.00 in   Overcast
3:53 PM 62.1 °F 61.0 °F 96% 30.09 in 4.0 mi ESE 5.8 mph - 0.01 in Rain Light Rain
4:19 PM 62.6 °F 60.8 °F 94% 30.11 in 1.8 mi SE 8.1 mph - 0.06 in Rain Heavy Rain
4:26 PM 62.6 °F 60.8 °F 94% 30.10 in 1.5 mi ESE 5.8 mph - 0.08 in Rain Rain
4:29 PM 62.6 °F 60.8 °F 94% 30.10 in 2.0 mi SE 6.9 mph - 0.09 in Rain Rain
4:39 PM 62.6 °F 62.6 °F 100% 30.10 in 2.5 mi SE 4.6 mph - 0.12 in Rain Rain
4:53 PM 63.0 °F 62.1 °F 97% 30.07 in 3.0 mi SE 5.8 mph - 0.16 in Rain Light Rain
5:25 PM 62.6 °F 62.6 °F 100% 30.09 in 2.5 mi SE 5.8 mph - 0.03 in Rain Rain
5:41 PM 62.6 °F 62.6 °F 100% 30.09 in 4.0 mi SE 5.8 mph - 0.05 in Rain Light Rain
5:47 PM 62.6 °F 62.6 °F 100% 30.09 in 2.0 mi SE 5.8 mph - 0.07 in Rain Heavy Rain
5:50 PM 62.6 °F 62.6 °F 100% 30.09 in 1.8 mi SE 4.6 mph - 0.08 in Rain Rain
5:53 PM 63.0 °F 62.1 °F 97% 30.06 in 1.8 mi ESE 5.8 mph - 0.09 in Rain Rain
5:57 PM 62.6 °F 62.6 °F 100% 30.09 in 2.5 mi ESE 6.9 mph - 0.00 in Rain Light Rain
6:05 PM 62.6 °F 62.6 °F 100% 30.09 in 2.0 mi SE 8.1 mph - 0.03 in Rain Rain
6:08 PM 62.6 °F 62.6 °F 100% 30.09 in 2.5 mi SE 6.9 mph - 0.03 in Rain Light Rain
6:16 PM 62.6 °F 62.6 °F 100% 30.08 in 6.0 mi SE 6.9 mph - 0.03 in Rain Light Rain
6:37 PM 62.6 °F 62.6 °F 100% 30.08 in 2.5 mi ESE 5.8 mph - 0.05 in Rain Light Rain
6:45 PM 62.6 °F 62.6 °F 100% 30.07 in 4.0 mi ESE 6.9 mph - 0.05 in Rain Light Rain
6:53 PM 63.0 °F 62.1 °F 97% 30.04 in 3.0 mi ESE 6.9 mph - 0.05 in   Overcast
7:53 PM 63.0 °F 62.1 °F 97% 30.04 in 3.0 mi ESE 5.8 mph - N/A   Overcast
8:53 PM 63.0 °F 62.1 °F 97% 30.05 in 5.0 mi ESE 6.9 mph - N/A   Overcast
9:53 PM 63.0 °F 62.1 °F 97% 30.04 in 4.0 mi ESE 5.8 mph - 0.03 in   Overcast
10:03 PM 62.6 °F 62.6 °F 100% 30.07 in 3.0 mi SE 4.6 mph - 0.00 in Rain Light Rain
10:53 PM 63.0 °F 62.1 °F 97% 30.05 in 4.0 mi SE 5.8 mph - 0.01 in Rain Light Rain
11:53 PM 63.0 °F 63.0 °F 100% 30.03 in 4.0 mi SE 6.9 mph - 0.01 in Rain Light Rain